User: anonymous   Login
Location: Unspecified
(0.0000°N, 0.0000°E)
Time: 22:45:41
(UTC+00:00)
Language:

Astrid - Orbit

View from above orbital plane
View from above orbital plane
View from above satellite
View from above satellite

Ground track
Ground track

The orbit data is extracted from the following two-line orbital elements,

1 23464U 95002B   24151.54915460  .00000138  00000-0  13266-3 0  9995
2 23464  82.9287 211.7600 0042254  67.7698 292.7931 13.72848377469444
Epoch (UTC): 30 May 2024 13:10:46
Eccentricity: 0.0042254
inclination: 82.9287°
perigee height: 958 km
apogee height: 1020 km
right ascension of ascending node: 211.7600°
argument of perigee: 67.7698°
revolutions per day: 13.72848377
mean anomaly at epoch: 292.7931°
orbit number at epoch: 46944

The dashed part of the orbit path shows where the satellite is in the earth's shadow,  

DLR